Location: Moy Burn
(57.3833°N, 4.0667°W)
Time: 11:00:31
(UTC+00:00)

EO 1 Del DPAF - Pass Details

Date: 08 August 2020
Orbit: 514 x 515 km, 98.0° (Epoch: 21 September)

Event Time Altitude Azimuth Distance (km) Brightness Sun altitude
Rises 23:33:09 0° 16° (NNE) 2,648 7.9 -16.1°
Reaches altitude 10° 23:35:15 10° 18° (NNE) 1,756 6.8 -16.2°
Maximum altitude 23:39:03 79° 104° (ESE) 534 3.1 -16.3°
Enters shadow 23:40:35 34° 187° (S) 866 3.8 -16.3°
